Skip Page Navigation
NASA JPL Caltech
NASA Logo - Jet Propulsion Laboratory + View the NASA Portal
+ Center for Near-Earth Object Studies
JPL Home Earth Solar System Stars & Galaxies Technology
JPL Solar System Dynamics
BODIES ORBITS EPHEMERIDES TOOLS PHYSICAL DATA DISCOVERY FAQ SITE MAP
IMPORTANT: The SSD Announcement email list is now available. Major changes are coming in the near future, including possible hostname and/or URL changes. To be notified of such changes, subscribe to this email list.

Please visit this page for more details.


JPL Small-Body Database Browser
Search: [ help ]  
59067 (1998 VS1)
Classification: Main-belt Asteroid          SPK-ID: 2059067
Ephemeris | Orbit Diagram | Orbital Elements | Mission Design | Physical Parameters | Discovery Circumstances | Close-Approach Data ]

[ show orbit diagram ]
Orbital Elements at Epoch 2459000.5 (2020-May-31.0) TDB
Reference: JPL 17 (heliocentric ecliptic J2000)
 Element Value Uncertainty (1-sigma)   Units 
e .1006733869344897 4.9162e-08  
a 2.64588036704299 1.546e-08 au
q 2.379510629069302 1.3591e-07 au
i 14.81660761211656 5.952e-06 deg
node 43.42913588029128 2.0108e-05 deg
peri 9.020279620435835 3.9483e-05 deg
M 358.5086767427543 3.2552e-05 deg
tp 2459007.012129412358
(2020-Jun-06.51212941)
0.00014215 TDB
period 1572.004310305411
4.30
1.3778e-05
3.772e-08
d
yr
n .2290070056678526 2.0071e-09 deg/d
Q 2.912250105016679 1.7016e-08 au
  Orbit Determination Parameters
   # obs. used (total)      824  
   data-arc span      8676 days (23.75 yr)  
   first obs. used      1996-04-22  
   last obs. used      2020-01-23  
   planetary ephem.      DE431  
   SB-pert. ephem.      SB431-N16  
   condition code      0  
   norm. resid. RMS      .56912  
   source      ORB  
   producer      Otto Matic  
   solution date      2020-Feb-23 12:41:55  

Additional Information
 Earth MOID = 1.39072 au 
 Jupiter MOID = 2.48694 au 
 T_jup = 3.338 
[ hide covariance matrix ]
Orbital Elements at Epoch 2457057.5 (2015-Feb-04.0) TDB
Reference: JPL 17 (heliocentric ecliptic J2000)
 Element Value Uncertainty (1-sigma)   Units 
e .1003584539424853 4.9802e-08  
q 2.381002282110658 1.3773e-07 au
tp 2457427.899792007897
(2016-Feb-09.39979201)
0.00013991 TDB
node 43.46443939228126 2.0104e-05 deg
peri 7.585658528166004 3.9512e-05 deg
i 14.81881381698149 5.9585e-06 deg
  Orbit Determination Parameters
   # obs. used (total)      824  
   data-arc span      8676 days (23.75 yr)  
   first obs. used      1996-04-22  
   last obs. used      2020-01-23  
   planetary ephem.      DE431  
   SB-pert. ephem.      SB431-N16  
   condition code      0  
   norm. resid. RMS      .56912  
   source      ORB  
   producer      Otto Matic  
   solution date      2020-Feb-23 12:41:55  

Additional Information
 Jupiter MOID = 2.48694 au 
 T_jup = 3.338 
Orbit Covariance (6×6)
  e q tp node peri i
e 2.480209679199651E-15 -6.828828566360008E-15 -3.395544334665346E-12 -9.619930609980943E-17 -7.733786991328999E-13 -5.470627945846485E-15
q -6.828828566360008E-15 1.896918689316029E-14 9.266413713438131E-12 1.912896133556511E-16 2.097453342447996E-12 1.555636086686053E-14
tp -3.395544334665346E-12 9.266413713438131E-12 1.957545491721795E-8 3.76382681476151E-12 4.785961527750014E-9 9.144483152302559E-12
node -9.619930609980943E-17 1.912896133556511E-16 3.76382681476151E-12 4.041809144480504E-10 -3.893888711229635E-10 -6.19112606857721E-11
peri -7.733786991328999E-13 2.097453342447996E-12 4.785961527750014E-9 -3.893888711229635E-10 1.561230446426271E-9 6.185456287990603E-11
i -5.470627945846485E-15 1.555636086686053E-14 9.144483152302559E-12 -6.19112606857721E-11 6.185456287990603E-11 3.550363224911657E-11

Ephemeris | Orbit Diagram | Orbital Elements | Mission Design | Physical Parameters | Discovery Circumstances | Close-Approach Data ]

Physical Parameter Table
Parameter Symbol Value Units Sigma Reference Notes
absolute magnitude H 15.0   n/a MPO449380  

59067 (1998 VS1)          Discovered 1998-Nov-09 by ODAS at Caussols
Reference: 20030614/Numbers.arcLast Updated: 2004-04-19

[ show close-approach data ]
Ephemeris | Orbit Diagram | Orbital Elements | Mission Design | Physical Parameters | Discovery Circumstances | Close-Approach Data ]
ABOUT SSD CREDITS/AWARDS PRIVACY/COPYRIGHT GLOSSARY LINKS
FirstGov 2020-May-26 18:12 UT
(server date/time)  
NASA Home Page
Site Manager:   Ryan S. Park
Webmaster  Alan B. Chamberlin